Main page
METAR-TAF:

METAR-TAF

Airports :

Jask, Iran

latitude: 26-38N, longitude: 057-46E, elevation: 3 m

Current weather observation

The report was made 32 minutes ago, at 14:00 UTC
Wind 14 kt from the West
Temperature 31°C
Humidity 71%
Pressure 1004 hPa
Visibility: 6000 m

METAR: OIZJ 251400Z 27014KT 6000 NSC 31/25 Q1004

Time: 19:02 (14:32 UTC)


TAF: missing

Weather observations and forecasts of more than 4000 airports (METAR and TAF reports).

The available stations are represented by yellow and red dots on the map.

Hover mouse over dot to see the name of the station.

Then click to see weather observations and forecasts.

To change the map : click on the green buttons with a black cross to zoom in, on the green button with a dash to zoom out, or on the green arrows for adjacent maps.


METAR-TAF: